This is the latest recevied weather packets stored in our database for station/object SQ7IQO. If no packets are shown the sender has not sent any weather packets the latest 10 day(s).
| Time | Temp. | Humidity | Pressure | Rain* | Wind** | Luminosity | Snow |
|---|---|---|---|---|---|---|---|
| 1787756798 | 22.78° C | 52% | 1023.4 hPa | 0 mm | 0 m/s | - | - |
| 1787756738 | 22.78° C | 53% | 1023.4 hPa | 0 mm | 0.45 m/s, ° | - | - |
| 1787756678 | 22.78° C | 53% | 1023.4 hPa | 0 mm | 0 m/s | - | - |
| 1787756618 | 22.78° C | 52% | 1023.4 hPa | 0 mm | 0 m/s | - | - |
| 1787756558 | 22.78° C | 53% | 1023.4 hPa | 0 mm | 0 m/s | - | - |
| 1787756498 | 22.78° C | 54% | 1023.4 hPa | 0 mm | 0 m/s | - | - |
| 1787756438 | 22.22° C | 54% | 1023.4 hPa | 0 mm | 0 m/s | - | - |
| 1787756378 | 22.78° C | 54% | 1023.3 hPa | 0 mm | 0.89 m/s, ° | - | - |
| 1787756318 | 22.78° C | 52% | 1023.4 hPa | 0 mm | 0 m/s | - | - |
| 1787756258 | 22.78° C | 51% | 1023.4 hPa | 0 mm | 0.45 m/s, ° | - | - |
| 1787756198 | 23.33° C | 52% | 1023.3 hPa | 0 mm | 0.89 m/s, ° | - | - |
| 1787756138 | 23.89° C | 54% | 1023.4 hPa | 0 mm | 0 m/s | - | - |
| 1787756078 | 23.89° C | 51% | 1023.4 hPa | 0 mm | 0 m/s | - | - |
| 1787756018 | 23.89° C | 52% | 1023.4 hPa | 0 mm | 0 m/s | - | - |
| 1787755958 | 23.89° C | 53% | 1023.3 hPa | 0 mm | 0 m/s | - | - |
| 1787755898 | 23.89° C | 51% | 1023.4 hPa | 0 mm | 0 m/s | - | - |
| 1787755838 | 23.89° C | 50% | 1023.3 hPa | 0 mm | 0 m/s | - | - |
| 1787755778 | 23.89° C | 49% | 1023.4 hPa | 0 mm | 0 m/s | - | - |
| 1787755718 | 23.89° C | 48% | 1023.3 hPa | 0 mm | 0 m/s | - | - |
| 1787755658 | 23.89° C | 53% | 1023.3 hPa | 0 mm | 0 m/s | - | - |
| 1787755598 | 24.44° C | 51% | 1023.4 hPa | 0 mm | 0 m/s | - | - |
| 1787755538 | 23.89° C | 53% | 1023.4 hPa | 0 mm | 0 m/s | - | - |
| 1787755478 | 23.89° C | 50% | 1023.3 hPa | 0 mm | 0 m/s | - | - |
| 1787755418 | 23.89° C | 51% | 1023.3 hPa | 0 mm | 0 m/s | - | - |
| 1787755358 | 23.89° C | 51% | 1023.4 hPa | 0 mm | 0 m/s | - | - |
* Rain latest hour (hover to see other rain measurements)
** Current wind speed in m/s (hover to see current wind gust speed)